Dewpoint
-3 -0 8 10 10 9 9 4 -3 -1 0 2 6 6 6 6 7 8 11 13 11 11 13 11 10 12 13 13 13 13 6 -2 -1 -3 -2 4 7 8 8 7 5 6 7 6 4 -2 -2 -2 -2
0 -1 8 10 11 10 8 3 -3 -4 -0 6 8 9 8 6 12 13 13 13 12 13 14 14 12 13 13 13 12 7 -2 -2 -4 4 8 10 10 9 9 9 7 5 -0 -2 -3 -2 -1 1 1
-3 2 7 8 9 9 7 4 1 -5 -2 4 5 9 8 9 13 13 15 14 14 14 15 14 12 13 13 12 6 -4 -4 -2 -1 8 10 10 10 9 9 6 -0 -5 -5 -4 -4 -3 -1 0 1
5 7 7 8 3 4 5 4 1 -1 6 6 7 8 11 13 14 14 14 14 14 15 15 13 13 14 13 5 -4 -6 -3 1 8 8 9 10 9 10 5 3 -4 -5 -6 -6 -6 -5 -4 -3 -3
6 7 2 2 -2 -0 5 4 0 1 2 5 7 7 11 13 14 14 13 14 14 15 14 14 14 13 5 -4 -7 -5 1 7 8 10 10 9 8 6 5 -5 -6 -7 -8 -8 -8 -7 -7 -6 -6
6 8 5 0 -3 -3 1 3 1 -0 0 4 6 9 12 14 13 14 14 14 14 14 14 14 13 7 -1 -5 -6 1 7 8 10 10 10 8 7 0 -6 -8 -9 -9 -8 -8 -8 -8 -8 -7 -7
5 6 2 1 -1 -2 -2 -1 3 3 2 2 7 7 12 14 13 14 14 14 13 13 14 13 11 4 -2 -2 0 7 10 9 10 10 8 9 4 -6 -8 -8 -9 -8 -8 -9 -9 -8 -8 -8 -6
6 6 3 0 -4 -3 -2 -1 0 4 4 3 9 7 11 14 13 14 14 14 14 13 13 12 11 10 9 9 8 9 10 10 10 9 6 0 -6 -7 -8 -10 -10 -11 -11 -10 -10 -9 -8 -7 -6
9 5 4 1 0 -3 -1 2 1 5 3 3 7 9 12 13 13 14 14 13 13 12 12 11 10 10 10 9 10 10 10 10 5 -2 -3 -3 -1 -3 -4 -11 -11 -10 -9 -9 -8 -8 -7 -6 -5
5 5 2 0 -0 -1 0 3 1 3 2 3 6 6 12 13 13 14 13 13 12 12 11 11 10 9 9 9 10 10 7 7 6 -2 -2 0 -4 -3 -11 -10 -9 -9 -9 -9 -9 -9 -8 -7 -3
5 5 2 3 3 4 3 3 3 3 2 1 3 5 11 13 13 14 13 13 12 11 11 10 10 9 9 9 9 9 8 6 -1 -2 -2 -4 -8 -9 -9 -8 -8 -9 -11 -12 -12 -12 -11 -10 -8
6 4 3 3 3 3 2 1 2 3 1 2 3 4 10 13 13 13 13 12 11 10 10 10 10 9 9 8 8 8 5 0 -2 -3 -5 -7 -8 -8 -9 -10 -12 -13 -14 -15 -20 -19 -12 -11 -9
5 4 4 4 4 4 3 2 2 1 3 3 5 4 9 12 13 13 13 13 11 9 10 10 9 9 8 8 7 6 4 1 -2 -5 -6 -8 -8 -8 -9 -13 -15 -17 -17 -20 -23 -19 -14 -13 -11
3 4 4 4 4 4 4 3 3 2 1 1 4 4 4 11 12 13 12 12 11 9 8 9 9 5 5 6 5 5 2 4 -3 -5 -7 -7 -8 -9 -10 -13 -16 -18 -21 -22 -20 -19 -17 -16 -14
3 4 3 4 5 5 5 6 5 3 2 2 3 4 4 6 12 12 12 12 11 9 8 8 6 4 -2 -0 3 4 4 0 -2 -5 -7 -8 -9 -9 -12 -14 -16 -19 -20 -18 -17 -18 -19 -20 -18
5 4 6 3 3 4 5 5 1 2 3 2 2 3 4 5 10 12 12 12 12 10 8 8 7 -0 -2 1 4 4 1 1 -1 -5 -7 -8 -9 -11 -13 -14 -17 -18 -16 -15 -17 -19 -21 -22 -21
4 5 6 3 2 4 5 5 1 1 2 3 2 3 4 5 7 11 12 12 12 11 9 8 6 -1 -2 -1 0 3 3 3 -0 -3 -8 -8 -9 -11 -13 -14 -16 -14 -13 -15 -18 -19 -19 -20 -21
5 7 3 2 2 3 4 5 2 2 2 2 2 2 3 5 7 11 11 11 12 11 9 8 8 -1 1 -1 2 4 5 4 2 -1 -7 -9 -10 -11 -12 -14 -14 -12 -13 -15 -16 -15 -15 -17 -19
2 2 2 1 0 3 3 2 2 2 2 3 2 2 2 4 6 7 10 10 11 11 10 8 5 -0 -2 1 2 4 5 5 3 0 -6 -9 -10 -11 -12 -12 -12 -11 -11 -12 -13 -12 -12 -13 -16
4 4 3 1 2 4 3 3 1 1 1 2 2 2 3 3 5 7 8 10 10 10 10 9 6 0 -4 -0 2 3 4 4 3 0 -4 -9 -10 -11 -11 -11 -10 -9 -9 -10 -10 -10 -10 -11 -14
5 6 5 4 3 5 4 5 2 -1 -0 1 2 2 2 3 4 5 7 8 10 10 10 10 6 1 -2 1 3 4 4 4 4 1 -3 -8 -9 -11 -11 -11 -10 -9 -9 -9 -8 -8 -9 -10 -12
7 4 3 4 5 7 3 4 -2 -4 -1 -0 1 2 2 2 4 4 5 6 7 9 10 9 7 2 -1 1 3 2 3 4 3 -0 -4 -8 -9 -11 -11 -11 -10 -8 -8 -8 -8 -8 -8 -9 -11
3 4 4 3 6 7 6 7 -1 -4 -3 -2 0 1 2 3 3 4 5 5 3 7 9 9 7 5 1 1 2 3 4 4 2 -1 -5 -8 -9 -10 -10 -10 -10 -9 -8 -8 -8 -8 -9 -10 -12
-1 2 3 4 5 6 1 2 0 -4 -5 -4 -4 -2 1 3 3 4 5 4 4 7 9 9 8 7 2 3 3 4 4 4 2 -2 -5 -8 -9 -10 -10 -10 -10 -9 -8 -8 -8 -9 -9 -11 -14
2 5 7 6 5 3 -4 -1 -1 -5 -6 -6 -5 -3 0 3 4 5 5 6 5 8 9 9 8 7 4 3 3 4 4 4 3 -3 -5 -8 -9 -9 -10 -10 -9 -9 -9 -9 -9 -9 -11 -13 -16
5 5 3 2 1 -0 -5 -1 -4 -6 -6 -5 -5 -4 -2 2 5 5 5 5 4 5 6 8 8 8 5 2 3 5 5 5 4 0 -6 -7 -9 -9 -9 -9 -9 -9 -9 -9 -9 -10 -12 -15 -19
1 5 1 5 2 2 -4 -4 -3 -5 -7 -6 -5 -5 -2 -0 4 5 5 5 5 4 4 5 8 8 6 4 3 5 5 5 5 2 -4 -7 -8 -9 -9 -9 -9 -9 -9 -10 -10 -12 -14 -17 -21
-0 -2 4 5 5 2 -4 -3 -3 -5 -6 -5 -3 -3 -3 -1 2 4 5 5 5 4 4 4 4 5 5 5 4 6 6 6 5 4 -0 -6 -8 -8 -9 -9 -9 -8 -9 -10 -12 -14 -16 -19 -23
3 5 2 -0 -2 -1 -1 -3 -6 -4 -3 -1 -3 -4 -3 -1 1 3 4 5 5 5 4 4 6 6 5 4 5 6 6 6 6 4 1 -4 -7 -8 -8 -8 -8 -8 -10 -12 -14 -16 -19 -22 -25
-1 1 1 1 1 -2 1 -2 -5 -2 -2 -1 -1 -1 -1 -3 -2 3 4 4 5 5 5 5 5 5 4 3 5 6 6 7 6 4 2 -3 -7 -8 -8 -7 -7 -8 -11 -13 -16 -19 -21 -25 -26
Wind_Speed
12 11 7 3 6 6 15 12 4 5 6 4 8 6 11 3 6 1 7 15 26 29 25 25 23 21 23 22 19 13 7 6 6 6 6 7 9 10 11 12 12 13 13 13 12 12 13 13 13
9 10 6 5 9 16 14 14 12 9 3 5 6 6 6 5 2 3 15 20 26 26 26 24 25 25 24 20 15 9 7 8 8 10 12 14 14 14 14 14 14 14 13 13 13 14 14 15 16
9 10 8 5 13 22 16 12 15 8 5 7 7 4 3 3 5 9 8 25 26 25 25 25 26 26 23 18 12 9 9 10 10 13 15 16 15 15 15 14 13 13 12 12 13 13 14 14 14
7 5 5 10 20 17 20 13 12 7 3 6 5 4 2 3 7 12 20 27 27 25 26 27 27 26 20 14 11 10 11 11 16 15 16 16 16 16 14 14 13 12 12 12 12 12 13 14 14
8 4 8 11 21 19 9 15 7 9 6 8 9 4 4 4 7 16 27 29 27 26 27 29 27 20 16 13 11 12 13 15 16 18 18 16 16 15 14 13 13 13 12 12 13 13 13 13 14
6 3 7 14 18 10 16 13 12 12 9 6 6 5 4 8 11 19 30 33 29 28 27 27 23 18 15 13 13 15 17 17 18 18 17 16 15 14 13 13 13 12 12 13 13 13 14 14 15
5 4 8 12 12 13 15 20 15 15 15 13 4 6 4 13 14 22 33 33 28 28 25 23 20 18 15 14 15 19 20 18 19 19 18 17 15 14 13 13 13 13 13 13 14 14 14 15 16
5 3 6 9 12 17 8 19 14 15 20 6 6 7 6 18 19 26 33 33 27 26 24 22 21 20 18 17 20 21 21 20 19 19 18 16 14 13 12 13 14 15 15 15 16 16 16 17 17
5 5 8 11 10 6 5 9 10 6 8 7 7 3 4 21 23 29 35 33 29 26 24 23 22 21 19 19 22 21 21 21 17 15 15 15 15 14 14 15 16 16 17 17 17 18 18 18 18
10 5 9 6 9 7 5 7 10 8 12 12 9 7 8 22 27 34 39 38 34 30 25 24 23 21 21 21 22 20 21 17 16 17 17 15 16 15 16 17 17 17 17 17 17 17 17 18 17
8 9 13 9 9 7 8 9 10 10 14 14 16 16 15 27 31 35 41 41 35 29 26 25 23 22 22 21 21 19 18 18 19 18 17 16 17 18 18 19 18 18 17 17 16 15 15 16 16
10 20 21 9 10 8 13 16 16 17 21 6 11 12 17 24 35 40 44 42 37 33 28 27 25 24 22 21 21 20 20 21 21 19 17 18 19 20 19 19 18 17 16 16 15 14 15 15 15
21 13 14 19 19 20 19 21 19 17 16 19 12 10 16 22 33 37 45 43 38 36 29 27 27 25 23 22 20 21 20 21 21 20 18 19 20 22 20 19 18 17 17 16 15 15 14 13 13
11 23 22 15 18 16 18 22 22 13 22 27 24 20 16 23 31 35 41 44 41 38 35 28 26 26 26 24 23 22 22 20 21 20 20 20 21 22 21 20 18 17 17 16 14 13 12 11 11
22 19 16 20 17 14 10 20 26 29 26 22 20 25 24 24 28 37 44 46 43 41 38 32 30 28 29 27 24 23 22 23 22 21 21 22 21 21 20 19 18 17 16 14 13 12 11 10 9
13 18 16 9 20 17 11 20 6 21 30 29 27 25 25 26 30 38 44 46 45 43 41 36 32 31 31 28 26 24 25 23 23 22 23 22 21 20 20 19 18 17 16 14 12 11 10 9 8
19 18 18 15 11 10 19 19 14 23 19 24 26 27 26 27 30 36 41 48 49 45 43 39 35 34 33 32 30 27 26 23 23 23 24 24 22 21 19 18 17 16 14 13 11 11 10 9 8
15 16 18 21 13 20 18 23 17 18 15 24 26 28 30 26 31 32 37 46 48 46 45 43 38 36 34 35 34 31 27 25 25 23 24 24 23 22 20 19 18 16 14 13 11 10 10 10 8
21 22 25 19 15 16 20 22 20 23 25 23 23 26 30 34 29 30 33 41 46 46 45 46 44 42 41 41 39 35 33 30 28 25 25 25 24 23 20 19 17 16 14 13 12 10 9 9 8
21 21 26 16 10 11 15 23 21 22 23 27 28 30 28 30 32 31 32 40 44 48 53 48 48 45 43 42 39 36 36 32 29 28 27 26 25 23 21 18 17 15 13 12 10 9 8 8 8
24 25 20 21 13 16 11 21 27 27 28 32 31 32 33 33 35 33 33 36 42 46 48 49 51 47 44 44 42 41 39 35 31 29 29 28 25 23 21 18 16 14 12 10 8 7 5 6 7
23 24 24 20 15 10 15 14 20 16 17 24 29 33 33 35 34 37 36 38 42 43 43 52 50 49 47 47 45 42 40 37 34 33 32 30 27 25 22 19 16 13 10 8 6 4 3 5 6
23 15 23 18 17 5 12 6 16 16 22 20 18 30 37 38 39 39 37 38 44 42 42 44 49 44 49 47 44 42 40 37 36 36 33 31 29 26 24 20 17 13 10 7 4 2 3 4 6
26 15 22 17 14 11 19 14 23 20 24 18 19 32 34 38 39 39 38 37 40 43 41 43 44 54 47 48 46 44 42 41 38 37 36 34 32 29 25 22 18 14 10 6 3 0 2 5 7
25 14 7 9 8 12 14 15 24 4 11 15 18 24 27 34 38 41 41 40 42 46 44 53 53 49 50 52 48 46 42 39 36 38 38 38 36 32 28 23 19 15 11 7 4 2 3 6 8
15 11 8 13 13 12 17 11 14 9 17 28 30 24 25 33 40 43 45 45 49 51 44 47 53 53 61 53 49 46 42 40 37 35 37 36 34 32 28 25 20 16 12 8 5 3 4 6 9
18 15 19 1 2 4 10 13 12 19 21 18 21 26 23 29 36 41 45 47 49 55 54 45 52 59 57 51 48 49 45 43 40 36 36 36 35 31 29 25 21 17 13 9 6 5 5 7 10
17 11 10 8 6 14 12 11 9 12 10 9 10 15 20 23 29 37 42 45 50 58 59 58 57 54 56 54 51 51 48 44 40 37 36 37 35 33 29 26 21 17 13 9 7 6 6 8 10
11 5 7 8 13 11 12 10 6 7 8 7 8 2 11 19 28 34 40 45 48 52 60 62 67 58 56 53 56 54 50 47 43 38 37 36 35 33 30 26 21 17 13 10 8 7 7 9 11
19 14 15 9 12 14 3 7 7 8 4 5 3 4 4 10 21 29 37 42 43 47 55 59 63 60 57 57 58 56 51 48 45 42 38 36 36 33 30 26 21 17 14 10 9 8 8 10 12
Wind_Direction
230 230 226 234 234 233 238 223 267 190 193 167 149 187 203 332 199 4 155 159 165 162 166 170 168 170 173 179 186 192 193 177 172 171 161 135 123 114 110 106 106 101 99 96 93 89 87 84 83
220 206 197 231 239 231 226 225 214 213 127 159 181 198 214 206 160 140 148 158 159 159 164 165 171 176 181 185 197 192 184 172 167 142 128 123 122 119 111 109 106 104 100 97 91 88 88 87 86
195 181 200 225 234 237 237 193 231 209 202 195 193 214 195 168 169 159 167 156 158 160 159 173 178 181 186 195 191 186 178 166 155 136 132 126 120 116 117 114 111 105 101 96 95 94 93 92 89
169 182 237 237 235 237 252 233 219 196 165 189 204 190 186 199 167 164 161 159 160 159 170 173 180 186 192 194 185 180 170 161 146 139 136 129 124 122 119 116 113 109 106 102 100 97 95 89 86
174 205 232 236 244 244 233 255 237 227 212 185 190 177 181 196 166 161 163 160 161 158 174 177 185 193 192 187 183 174 165 150 143 140 134 130 125 123 120 118 116 113 110 104 100 95 92 89 88
184 256 238 243 243 242 237 237 235 234 221 181 207 198 166 163 176 171 166 169 166 167 170 178 187 191 190 186 179 165 150 148 145 140 135 132 128 128 124 120 118 114 109 104 100 98 96 94 93
228 210 250 265 259 255 232 231 234 235 230 222 218 220 158 173 187 176 174 173 168 169 165 169 170 182 184 179 174 155 150 151 146 142 137 133 135 128 125 121 116 113 109 106 103 101 99 98 97
201 238 246 231 241 251 228 230 251 244 245 226 206 214 190 186 188 182 177 174 168 164 163 167 166 162 160 162 157 154 153 154 152 150 147 145 134 131 124 120 117 114 111 109 105 101 100 100 100
172 235 239 244 237 233 219 232 229 256 244 231 222 236 185 187 184 184 181 178 171 167 168 169 168 166 163 163 161 157 157 162 156 150 147 142 136 131 130 126 121 117 113 109 105 102 100 99 97
204 229 239 247 233 246 260 253 264 252 234 229 232 233 180 184 186 187 186 181 180 171 171 171 170 169 165 165 160 160 165 159 161 159 155 150 145 141 137 128 124 119 114 109 105 103 102 101 100
198 225 231 229 230 253 261 261 255 257 250 249 227 217 201 188 194 194 192 191 185 177 172 173 171 170 167 166 166 167 164 164 165 164 160 157 149 142 138 133 129 123 118 114 111 108 108 107 105
226 232 240 230 229 253 255 265 250 248 251 278 246 215 201 202 198 196 195 195 190 183 178 175 173 172 174 171 171 171 169 168 167 167 166 161 155 147 142 137 132 126 121 115 111 111 109 106 103
227 235 238 245 252 248 256 254 256 256 252 252 238 225 211 203 206 200 199 199 193 189 182 178 178 176 177 176 174 171 171 170 171 168 166 165 158 152 146 139 133 128 122 118 113 110 110 106 103
211 234 249 252 251 249 243 250 245 239 241 247 241 234 225 215 207 204 197 195 197 192 192 182 184 185 185 181 178 173 173 172 171 168 164 163 160 155 150 143 137 129 124 120 114 112 110 107 102
237 251 245 243 244 252 250 251 241 239 238 241 240 236 231 223 211 206 208 208 206 199 194 191 191 190 190 187 181 176 174 174 171 167 163 162 160 157 153 147 139 132 126 120 115 110 108 105 105
221 237 245 242 226 227 212 252 208 233 232 238 238 233 229 226 219 213 215 212 207 202 198 194 194 194 190 185 181 179 177 175 173 169 164 164 163 159 156 150 143 135 129 122 117 112 110 111 112
227 233 218 239 207 199 205 259 252 239 228 232 232 227 225 226 216 211 207 214 211 203 201 196 198 195 190 187 185 182 181 179 177 174 170 167 166 163 160 154 146 138 131 124 118 116 112 108 110
214 221 234 242 213 222 224 250 265 251 242 233 234 228 222 219 214 207 208 213 213 204 203 198 202 196 190 187 185 184 184 184 182 179 175 171 170 167 164 159 150 140 135 129 122 115 108 103 99
239 230 241 239 226 233 245 257 256 252 245 241 238 231 228 221 217 210 207 213 212 211 210 202 197 195 192 189 187 188 189 187 184 182 179 176 174 170 169 165 156 147 143 135 124 113 103 101 90
230 237 241 248 206 229 245 262 259 254 249 245 237 235 229 224 218 206 203 212 214 211 211 203 200 197 195 193 189 187 185 185 186 183 181 180 178 174 172 171 163 152 147 137 127 118 108 96 83
215 221 224 226 212 226 251 266 264 256 249 243 237 235 232 224 217 209 198 204 212 212 206 204 202 199 194 193 190 187 186 187 184 184 184 182 181 179 176 173 169 161 153 145 135 121 98 82 73
220 213 226 236 228 239 197 264 248 247 244 232 233 227 228 226 221 214 207 202 209 212 210 206 203 197 195 196 195 193 189 187 188 187 185 182 182 182 180 178 174 169 162 155 138 115 80 56 43
231 211 224 225 222 224 206 263 255 250 251 243 229 228 224 222 218 212 207 207 212 206 206 204 203 202 198 198 199 195 194 192 190 187 185 185 183 185 184 182 180 178 175 167 153 110 46 28 20
224 224 221 231 233 241 243 227 269 248 253 247 240 234 227 220 215 213 208 203 205 208 202 203 203 208 203 201 200 200 197 195 192 189 188 187 187 186 187 186 186 185 184 182 178 173 358 0 0
207 205 188 210 216 241 238 229 242 262 264 254 247 239 230 220 216 210 203 198 198 199 200 201 199 205 210 205 202 202 203 202 197 193 192 191 190 189 189 190 190 191 193 195 205 266 329 342 346
207 195 205 217 228 229 204 238 236 248 246 249 248 248 234 222 213 208 203 198 202 199 198 203 201 203 209 202 203 204 206 203 202 201 199 199 197 194 192 192 193 195 199 203 219 264 309 328 334
201 218 223 329 226 260 229 243 261 249 250 259 259 243 233 226 218 210 206 198 197 201 197 205 208 204 210 203 204 205 205 205 203 202 202 201 200 198 196 195 196 198 201 208 227 260 298 317 325
204 191 194 208 214 224 230 234 263 273 274 297 264 240 236 229 221 215 207 202 198 206 207 206 213 215 210 206 205 207 205 205 206 205 203 203 201 199 197 197 197 201 206 215 236 262 292 310 319
201 196 196 223 228 238 250 250 269 129 106 64 26 3 239 232 224 217 209 204 202 201 204 205 207 212 211 209 206 207 206 206 206 206 204 203 201 199 199 199 199 203 212 220 240 265 290 306 313
203 197 196 207 201 227 232 239 128 114 30 333 331 309 285 235 227 220 208 205 200 194 194 194 201 210 210 206 206 207 207 208 206 205 203 201 200 197 199 198 199 207 214 228 244 267 290 304 308
Height
1521 1522 1524 1526 1526 1514 1504 1502 1501 1500 1501 1503 1504 1504 1503 1502 1503 1506 1507 1510 1515 1519 1524 1528 1531 1534 1536 1536 1538 1540 1541 1542 1543 1543 1544 1544 1545 1545 1545 1545 1545 1546 1546 1546 1546 1545 1545 1545 1545
1518 1521 1523 1522 1515 1503 1498 1499 1500 1495 1501 1503 1504 1505 1505 1501 1506 1506 1508 1511 1516 1520 1524 1528 1531 1532 1534 1536 1538 1539 1541 1542 1542 1543 1544 1545 1546 1546 1546 1546 1547 1547 1547 1547 1547 1547 1547 1547 1547
1518 1519 1522 1514 1505 1489 1493 1496 1494 1498 1501 1502 1503 1504 1504 1502 1505 1506 1509 1511 1517 1521 1525 1528 1530 1532 1534 1536 1537 1539 1540 1542 1542 1544 1544 1546 1546 1547 1547 1547 1547 1548 1549 1549 1549 1549 1549 1549 1549
1518 1521 1520 1509 1494 1491 1492 1488 1495 1499 1501 1501 1502 1501 1504 1503 1504 1504 1507 1513 1516 1521 1524 1527 1530 1532 1534 1536 1537 1538 1540 1542 1543 1544 1545 1546 1547 1548 1548 1548 1549 1550 1550 1551 1551 1551 1551 1551 1551
1517 1518 1510 1503 1496 1494 1499 1496 1499 1495 1495 1498 1500 1497 1501 1502 1502 1503 1506 1512 1516 1520 1523 1526 1530 1533 1534 1536 1537 1538 1540 1542 1543 1545 1546 1547 1548 1548 1549 1549 1550 1551 1552 1552 1552 1552 1552 1552 1552
1517 1516 1509 1501 1495 1495 1497 1498 1499 1496 1495 1498 1499 1499 1500 1500 1502 1503 1505 1510 1515 1519 1523 1526 1530 1532 1534 1536 1537 1539 1541 1542 1544 1545 1547 1548 1549 1549 1550 1551 1551 1552 1553 1553 1554 1554 1554 1554 1554
1513 1513 1503 1500 1499 1497 1495 1496 1496 1493 1492 1494 1496 1495 1499 1500 1501 1503 1505 1509 1514 1518 1523 1526 1529 1532 1534 1536 1537 1539 1541 1543 1545 1547 1547 1549 1549 1550 1551 1552 1553 1553 1554 1554 1555 1555 1555 1556 1556
1512 1512 1504 1498 1492 1492 1494 1495 1494 1494 1491 1494 1495 1491 1496 1498 1499 1502 1506 1509 1513 1517 1522 1527 1530 1532 1535 1537 1538 1539 1542 1544 1546 1547 1548 1549 1551 1552 1553 1553 1554 1554 1555 1556 1556 1557 1557 1557 1558
1512 1509 1503 1494 1494 1489 1492 1494 1495 1494 1493 1495 1494 1494 1494 1493 1497 1502 1505 1508 1511 1516 1521 1525 1529 1532 1535 1537 1538 1540 1542 1544 1546 1548 1550 1551 1552 1553 1554 1555 1555 1556 1557 1558 1558 1558 1559 1560 1560
1507 1503 1493 1490 1491 1491 1493 1495 1493 1494 1492 1491 1492 1492 1493 1492 1495 1498 1501 1504 1508 1511 1518 1523 1527 1531 1534 1535 1538 1540 1541 1545 1547 1549 1550 1552 1553 1554 1555 1556 1557 1558 1558 1559 1560 1560 1561 1562 1563
1500 1494 1488 1492 1492 1494 1492 1493 1494 1491 1488 1489 1488 1490 1492 1491 1492 1495 1498 1501 1506 1510 1514 1520 1524 1529 1532 1535 1538 1540 1542 1544 1546 1549 1551 1552 1553 1554 1556 1557 1558 1559 1560 1560 1562 1562 1563 1564 1564
1494 1489 1487 1487 1488 1491 1491 1489 1487 1488 1487 1488 1488 1488 1488 1491 1490 1489 1494 1497 1502 1507 1511 1516 1521 1526 1530 1534 1536 1538 1540 1542 1544 1548 1550 1552 1553 1555 1556 1558 1559 1560 1561 1562 1563 1564 1564 1565 1565
1486 1484 1484 1484 1485 1484 1486 1485 1484 1481 1485 1486 1487 1485 1486 1487 1489 1490 1490 1496 1500 1505 1510 1514 1517 1522 1527 1531 1534 1536 1539 1542 1544 1547 1550 1552 1553 1555 1557 1558 1560 1561 1562 1563 1564 1565 1565 1566 1566
1477 1480 1480 1479 1480 1481 1479 1476 1480 1476 1477 1480 1482 1483 1483 1483 1484 1487 1488 1490 1495 1502 1506 1511 1516 1518 1523 1528 1531 1534 1537 1541 1543 1546 1549 1551 1553 1555 1557 1559 1560 1561 1563 1564 1565 1566 1567 1567 1567
1473 1474 1474 1473 1477 1474 1478 1469 1462 1468 1471 1473 1476 1478 1479 1480 1481 1481 1483 1485 1491 1497 1502 1507 1511 1516 1520 1525 1530 1533 1536 1539 1542 1545 1548 1551 1554 1555 1557 1559 1560 1562 1564 1565 1566 1567 1568 1568 1568
1469 1468 1471 1462 1466 1469 1475 1449 1452 1456 1462 1464 1468 1471 1473 1473 1475 1477 1479 1481 1485 1492 1497 1503 1507 1513 1517 1522 1528 1532 1535 1538 1541 1544 1547 1550 1553 1556 1558 1560 1561 1563 1564 1566 1567 1568 1568 1569 1569
1457 1447 1457 1459 1458 1461 1462 1445 1448 1453 1454 1456 1459 1462 1465 1467 1468 1470 1473 1476 1480 1484 1492 1497 1503 1509 1514 1518 1524 1530 1534 1537 1540 1543 1546 1550 1553 1556 1559 1561 1563 1564 1565 1566 1568 1568 1569 1569 1569
1443 1450 1447 1444 1448 1453 1449 1446 1449 1449 1448 1449 1450 1452 1456 1459 1461 1465 1467 1470 1476 1478 1485 1492 1498 1503 1510 1515 1520 1526 1532 1535 1539 1542 1545 1549 1552 1556 1559 1561 1563 1565 1566 1567 1568 1569 1569 1569 1570
1432 1432 1439 1439 1443 1447 1441 1438 1439 1443 1441 1442 1443 1444 1446 1451 1457 1460 1463 1465 1469 1474 1480 1485 1491 1496 1503 1509 1513 1520 1526 1532 1536 1540 1544 1548 1552 1555 1558 1561 1563 1565 1566 1568 1569 1570 1570 1570 1570
1435 1433 1430 1433 1440 1447 1439 1431 1430 1432 1432 1433 1436 1437 1440 1444 1449 1452 1455 1458 1462 1466 1467 1476 1485 1491 1496 1505 1510 1516 1522 1529 1533 1537 1542 1547 1551 1554 1557 1560 1563 1565 1566 1568 1569 1570 1570 1570 1570
1421 1427 1430 1430 1435 1443 1439 1431 1422 1419 1423 1423 1425 1429 1431 1434 1439 1445 1446 1448 1455 1460 1462 1468 1479 1485 1492 1501 1506 1511 1516 1524 1529 1535 1539 1544 1549 1553 1556 1559 1562 1564 1566 1567 1569 1570 1570 1570 1570
1412 1417 1425 1430 1437 1434 1430 1416 1398 1399 1403 1408 1412 1417 1421 1425 1430 1436 1439 1439 1446 1453 1457 1459 1476 1479 1487 1494 1502 1506 1510 1518 1525 1530 1536 1541 1546 1551 1554 1557 1560 1563 1565 1567 1568 1569 1570 1570 1569
1400 1414 1418 1421 1429 1431 1428 1426 1391 1396 1396 1397 1402 1406 1409 1413 1419 1425 1429 1431 1435 1446 1453 1457 1469 1475 1482 1490 1499 1504 1509 1515 1521 1527 1533 1539 1543 1548 1552 1555 1558 1561 1564 1565 1567 1568 1568 1569 1568
1401 1409 1412 1416 1418 1418 1406 1418 1373 1386 1386 1387 1390 1393 1398 1404 1410 1417 1422 1426 1430 1440 1445 1452 1456 1476 1479 1487 1494 1500 1504 1509 1516 1523 1529 1535 1540 1545 1549 1553 1556 1559 1561 1563 1565 1566 1567 1567 1567
1398 1407 1400 1412 1412 1395 1392 1400 1379 1377 1378 1380 1381 1385 1390 1395 1401 1406 1413 1418 1423 1431 1442 1447 1453 1462 1476 1484 1489 1495 1501 1507 1513 1519 1524 1530 1535 1541 1546 1550 1554 1557 1559 1561 1563 1564 1565 1565 1565
1395 1395 1384 1390 1382 1385 1385 1385 1373 1372 1374 1376 1375 1379 1380 1384 1389 1394 1400 1406 1411 1419 1431 1443 1447 1458 1473 1474 1483 1491 1497 1505 1511 1517 1521 1528 1534 1539 1544 1548 1551 1555 1557 1559 1560 1561 1562 1563 1563
1380 1391 1387 1395 1393 1391 1372 1377 1374 1369 1366 1368 1368 1369 1373 1376 1382 1386 1391 1396 1403 1410 1418 1435 1445 1452 1462 1466 1477 1485 1493 1500 1507 1514 1520 1525 1531 1537 1541 1546 1549 1552 1555 1557 1558 1559 1560 1560 1560
1373 1377 1393 1396 1391 1382 1368 1372 1368 1362 1360 1360 1361 1362 1365 1370 1374 1379 1385 1389 1394 1400 1410 1420 1431 1443 1453 1460 1468 1479 1487 1496 1503 1509 1515 1521 1529 1534 1539 1543 1547 1551 1553 1554 1556 1557 1557 1557 1557
1379 1381 1382 1377 1375 1373 1373 1366 1355 1358 1364 1364 1361 1361 1362 1364 1367 1370 1375 1382 1388 1394 1400 1410 1423 1432 1445 1453 1462 1472 1482 1491 1498 1505 1512 1518 1525 1530 1537 1541 1544 1548 1551 1551 1553 1554 1553 1554 1554
1361 1365 1371 1371 1378 1373 1378 1365 1361 1365 1368 1367 1364 1363 1362 1360 1361 1363 1367 1375 1383 1388 1394 1404 1413 1426 1437 1444 1453 1464 1476 1485 1492 1500 1507 1514 1522 1528 1534 1538 1541 1545 1548 1548 1550 1551 1550 1551 1551